Meteo Giornale » Osservazioni meteo Italia » Verona-Villafranca

ore: 04:20 - Osservazioni Meteo Verona-Villafranca
Lat. 45° 23' N Lon. 10° 52' E Alt. 67 metri s.l.m.

poco_nuvoloso Europe/Rome

4 °C

Poco Nuvoloso

Temp. 24 Ore

3 °C

7 °C

Nord

3.7 Km/h

Dew point -2 °C

Umidità 64 %

Visibilità  10 Km

Il sole sorge alle ore 07:09

Il sole tramonta alle ore 17:51

Data e Ora Cielo e Fenomeni T °C DP °C Um. % Pres. hPa Vis. km Vento km/h
Oggi h: 04:20 poco_nuvoloso Poco Nuvoloso 4 -2 64 1020 10 N 3.7
Oggi h: 03:50 poco_nuvoloso Poco Nuvoloso 3 -1 74 1019 10 N 5.5
Oggi h: 03:20 poco_nuvoloso Poco Nuvoloso 4 -2 64 1020 10 E 11.1
Oggi h: 02:50 poco_nuvoloso Poco Nuvoloso 4 -2 64 1020 10 E 11.1
Oggi h: 02:20 poco_nuvoloso Poco Nuvoloso 4 -2 64 1020 10 E 11.1
Oggi h: 01:50 poco_nuvoloso Poco Nuvoloso 4 -2 64 1020 10 E 11.1
Oggi h: 01:20 poco_nuvoloso Poco Nuvoloso 4 -1 69 1021 10 E/NE 11.1
Oggi h: 00:50 nuvoloso Nuvoloso 4 -0 75 1021 10 E 11.1
Oggi h: 00:20 molto_nuvoloso Molto Nuvoloso 4 0 75 1021 10 E 9.3
Ieri h: 23:50 molto_nuvoloso Molto Nuvoloso 4 1 80 1021 10 N 5.5
Ieri h: 23:20 molto_nuvoloso Molto Nuvoloso 5 0 70 1021 10 N 5.5
Ieri h: 22:50 molto_nuvoloso Molto Nuvoloso 5 1 75 1021 10 N 5.5
Ieri h: 22:20 molto_nuvoloso Molto Nuvoloso 5 0 70 1021 10 E 7.4
Ieri h: 21:50 molto_nuvoloso Molto Nuvoloso 5 0 70 1021 10 E 9.3
Ieri h: 21:20 molto_nuvoloso Molto Nuvoloso 5 0 70 1021 10 E 11.1
Ieri h: 20:50 molto_nuvoloso Molto Nuvoloso 5 0 70 1021 10 E 9.3
Ieri h: 20:20 molto_nuvoloso Molto Nuvoloso 5 0 70 1021 10 E 9.3
Ieri h: 19:50 molto_nuvoloso Molto Nuvoloso 6 0 65 1021 10 E 18.5
Ieri h: 19:20 molto_nuvoloso Molto Nuvoloso 6 -0 65 1021 10 E 16.7
Ieri h: 18:50 molto_nuvoloso Molto Nuvoloso 6 -0 65 1021 10 E 13
Ieri h: 18:20 molto_nuvoloso Molto Nuvoloso 6 -0 65 1021 10 E 14.8
Ieri h: 17:50 molto_nuvoloso Molto Nuvoloso 7 -0 60 1021 10 E/NE 22.2
Ieri h: 16:50 molto_nuvoloso Molto Nuvoloso 7 2 70 1020 10 E/NE 18.5
Ieri h: 16:20 molto_nuvoloso Molto Nuvoloso 7 2 70 1020 10 E/NE 18.5
Ieri h: 15:50 molto_nuvoloso Molto Nuvoloso 7 2 70 1020 10 E/NE 25.9
Ieri h: 15:20 coperto_pioggia Pioggia Debole 7 3 75 1020 10 E/NE 25.9
Ieri h: 14:50 coperto_pioggia Pioviggine Leggera 7 3 75 1020 10 E 24
Ieri h: 14:20 molto_nuvoloso Molto Nuvoloso 7 4 81 1020 10 E/NE 18.5
Ieri h: 13:50 molto_nuvoloso Molto Nuvoloso 7 4 81 1020 10 E/NE 20.3
Ieri h: 13:20 molto_nuvoloso Molto Nuvoloso 7 4 81 1020 10 E/NE 16.7
Ieri h: 12:50 foschia Foschia 7 4 81 1020 5 E/NE 16.7
Ieri h: 12:20 foschia Foschia 7 5 87 1020 3 N 5.5
Ieri h: 11:50 foschia Foschia 6 4 86 1020 3 N 1.8
Ieri h: 11:20 foschia Foschia 6 4 86 1019 3 N 3.7
Ieri h: 10:50 foschia Foschia 6 3 81 1019 3 N 3.7
Ieri h: 10:20 foschia Foschia 6 4 86 1019 3 N 3.7
Ieri h: 09:50 foschia Foschia 6 4 86 1019 2 N 3.7
Ieri h: 09:20 foschia Foschia 5 4 93 1019 1 N 3.7
Ieri h: 08:50 foschia Foschia 5 4 93 1019 1 N 3.7
Ieri h: 08:20 foschia Foschia 4 4 100 1018 1 N 5.5
Ieri h: 07:50 nebbia Nebbia 4 3 93 1018 0.8 N 3.7
Ieri h: 07:20 nebbia Nebbia 4 3 93 1018 0.8 N 5.5
Ieri h: 06:50 nebbia Nebbia 4 3 93 1018 0.8 N 5.5
Ieri h: 06:20 coperto_pioggia Pioggia Foschia 4 3 93 1017 2 N 1.8
Ieri h: 05:50 coperto_pioggia Pioggia Foschia 4 3 93 1017 2 N 1.8
Ieri h: 04:50 coperto_pioggia Pioggia Foschia 4 3 93 1017 2 N 5.5
Ieri h: 04:20 coperto_pioggia Pioggia Foschia 4 3 93 1017 2 N 5.5